TimeMDT,TemperatureF,Dew PointF,Humidity,Sea Level PressureIn,VisibilityMPH,Wind Direction,Wind SpeedMPH,Gust SpeedMPH,PrecipitationIn,Events,Conditions,WindDirDegrees,DateUTC
12:53 AM,43.0,21.0,42,30.03,10.0,SSW,6.9,-,N/A,,Clear,210,2012-09-21 06:53:00
1:53 AM,42.1,21.9,45,30.03,10.0,South,8.1,-,N/A,,Clear,170,2012-09-21 07:53:00
2:53 AM,39.0,21.0,49,30.04,10.0,Calm,Calm,-,N/A,,Clear,0,2012-09-21 08:53:00
3:53 AM,43.0,21.0,42,30.01,10.0,SSW,3.5,-,N/A,,Clear,200,2012-09-21 09:53:00
4:53 AM,36.0,19.0,50,30.06,10.0,SW,4.6,-,N/A,,Clear,230,2012-09-21 10:53:00
5:53 AM,36.0,19.9,52,30.08,10.0,WSW,5.8,-,N/A,,Clear,240,2012-09-21 11:53:00
6:53 AM,35.1,23.0,61,30.12,10.0,South,5.8,-,N/A,,Clear,180,2012-09-21 12:53:00
7:53 AM,39.9,23.0,51,30.14,10.0,SSE,4.6,-,N/A,,Clear,150,2012-09-21 13:53:00
8:53 AM,48.0,23.0,37,30.14,10.0,South,3.5,-,N/A,,Clear,170,2012-09-21 14:53:00
9:53 AM,57.0,25.0,29,30.12,10.0,Calm,Calm,-,N/A,,Clear,0,2012-09-21 15:53:00
10:53 AM,64.0,26.1,24,30.09,10.0,NNW,11.5,-,N/A,,Clear,340,2012-09-21 16:53:00
11:53 AM,66.9,26.1,21,30.07,10.0,NNW,15.0,24.2,N/A,,Clear,340,2012-09-21 17:53:00
12:53 PM,69.1,26.1,20,30.07,10.0,NW,18.4,24.2,N/A,,Clear,320,2012-09-21 18:53:00
1:53 PM,71.1,24.1,17,30.04,10.0,NNW,17.3,27.6,N/A,,Clear,340,2012-09-21 19:53:00
2:53 PM,71.1,24.1,17,30.04,10.0,North,16.1,27.6,N/A,,Clear,350,2012-09-21 20:53:00
3:53 PM,72.0,24.1,17,30.00,10.0,NNW,19.6,29.9,N/A,,Clear,340,2012-09-21 21:53:00
4:53 PM,71.1,23.0,16,30.04,10.0,North,18.4,25.3,N/A,,Clear,350,2012-09-21 22:53:00
5:53 PM,70.0,23.0,17,30.05,10.0,North,16.1,-,N/A,,Clear,360,2012-09-21 23:53:00
6:53 PM,64.9,23.0,20,30.09,10.0,North,9.2,-,N/A,,Clear,360,2012-09-22 00:53:00
7:53 PM,59.0,24.1,26,30.11,10.0,NNE,4.6,-,N/A,,Clear,30,2012-09-22 01:53:00
8:53 PM,52.0,24.1,34,30.13,10.0,SE,8.1,-,N/A,,Clear,140,2012-09-22 02:53:00
9:53 PM,51.1,24.1,35,30.11,10.0,Calm,Calm,-,N/A,,Clear,0,2012-09-22 03:53:00
10:53 PM,50.0,25.0,38,30.09,10.0,South,5.8,-,N/A,,Clear,170,2012-09-22 04:53:00
11:53 PM,43.0,23.0,45,30.11,10.0,SW,3.5,-,N/A,,Clear,230,2012-09-22 05:53:00